DW9665 Sarajevo BA current weather conditions

sailwx.info

Wind from 180

Air temperature 6.1° C
Dewpoint 4.3° C

Last reported at 2014-Nov-27 19:47 UTC.
Time now 2014-Nov-27 20:51 UTC

Location: N 43°50' E 018°21'.
View on Google Maps.

See reports from other nearby stations

  
Tides and Currents Weather Stations Pressure Air Temp Water Temp Dewpoint Dewpoint Depression Visibility Wind Speed Wind Dir Waves Ship Positions
date/time (UTC)wind fromknots sea level pressurealtimeterstation pressurevisibilityair tempwater tempwave heightnotes
2014-Nov-27 19:47 180 6.1
2014-Nov-27 19:32 270 0 gusting 1 6.7
2014-Nov-27 19:17 180 1 gusting 2 6.7
2014-Nov-27 19:02 158 6.7
2014-Nov-27 18:47 158 6.7
2014-Nov-27 18:32 180 6.7
2014-Nov-27 18:17 180 6.7
2014-Nov-27 18:02 135 0 6.7
2014-Nov-27 17:02 270 6.7
2014-Nov-27 16:47 180 6.7
2014-Nov-27 16:32 315 6.7
2014-Nov-27 16:17 315 7.2
2014-Nov-27 16:02 158 7.2
2014-Nov-27 15:47 158 6.7
2014-Nov-27 15:32 158 7.2
2014-Nov-27 15:17 180 7.2
2014-Nov-27 15:02 180 6.7
2014-Nov-27 14:47 180 0 gusting 2 6.7
2014-Nov-27 14:32 270 1 gusting 2 6.7
2014-Nov-27 14:17 270 1 gusting 1 7.2
2014-Nov-27 14:02 292 7.2
2014-Nov-27 13:32 7.2
2014-Nov-27 13:17 180 7.2
2014-Nov-27 13:02 270 0 gusting 1 7.2
2014-Nov-27 12:32 158 6.7
2014-Nov-27 12:17 158 6.7
2014-Nov-27 12:02 270 7.2
2014-Nov-27 11:47 090 7.2
2014-Nov-27 11:32 180 7.2
2014-Nov-27 11:17 180 6.7
2014-Nov-27 11:02 180 6.1
2014-Nov-27 10:47 270 0 gusting 1 6.1
2014-Nov-27 10:32 292 0 gusting 1 6.1
2014-Nov-27 10:17 135 0 gusting 0 5.6
2014-Nov-27 10:02 5.6
2014-Nov-27 09:47 180 5.6
2014-Nov-27 09:32 270 5.0
2014-Nov-27 09:17 270 1 gusting 1 5.0
2014-Nov-27 09:02 180 4.4
2014-Nov-27 08:47 270 4.4
2014-Nov-27 08:32 180 4.4
2014-Nov-27 08:17 270 1 gusting 2 4.4
2014-Nov-27 08:02 180 4.4
2014-Nov-27 07:47 270 1 gusting 1 3.9
2014-Nov-27 07:32 022 3.9
2014-Nov-27 07:17 292 0 gusting 1 3.9
2014-Nov-27 07:02 270 0 gusting 2 3.9
2014-Nov-27 06:47 180 3.9
2014-Nov-27 06:32 3.9
2014-Nov-27 06:17 3.9
2014-Nov-27 06:02 112 0 gusting 0 3.9
2014-Nov-27 05:47 180 3.9
2014-Nov-27 05:32 180 3.9
2014-Nov-27 05:17 3.9
2014-Nov-27 05:02 3.9
2014-Nov-27 04:47 180 3.3
2014-Nov-27 04:32 180 3.9
2014-Nov-27 04:17 270 0 gusting 0 3.9
2014-Nov-27 04:02 270 3.9
2014-Nov-27 03:47 270 3.9
2014-Nov-27 03:32 270 3.9
2014-Nov-27 03:17 270 3.9
2014-Nov-27 03:02 270 3.9
2014-Nov-27 02:47 270 3.3
2014-Nov-27 02:32 270 3.3
2014-Nov-27 02:17 292 0 gusting 0 3.3
2014-Nov-27 02:02 180 3.3
2014-Nov-27 01:47 270 1 gusting 1 3.3
2014-Nov-27 01:32 180 3.9
2014-Nov-27 01:17 180 0 3.9
2014-Nov-27 01:02 180 3.9
2014-Nov-27 00:47 158 3.9
2014-Nov-27 00:32 135 0 gusting 1 3.9
2014-Nov-27 00:17 292 3.9
2014-Nov-27 00:02 292 3.9
2014-Nov-26 23:47 292 3.9
2014-Nov-26 23:32 180 3.9
2014-Nov-26 23:17 180 3.9
2014-Nov-26 23:02 338 0 gusting 2 3.9
2014-Nov-26 22:47 292 3.9
2014-Nov-26 22:32 338 3.9
2014-Nov-26 22:17 270 0 gusting 0 3.9
2014-Nov-26 22:02 338 0 gusting 2 3.9
2014-Nov-26 21:47 292 0 gusting 1 3.9
2014-Nov-26 21:32 180 3.9
2014-Nov-26 21:17 180 3.9
2014-Nov-26 21:02 180 3.9
2014-Nov-26 20:47 180 3.9
2014-Nov-26 20:32 270 1 gusting 2 3.9
2014-Nov-26 20:17 270 0 gusting 2 3.9
2014-Nov-26 20:02 338 3.9
2014-Nov-26 19:47 180 3.9
2014-Nov-26 19:32 292 3.9
2014-Nov-26 19:17 292 0 3.9
2014-Nov-26 19:02 315 3.9
2014-Nov-26 18:47 315 3.9
2014-Nov-26 18:32 180 3.9
2014-Nov-26 18:17 180 3.9
2014-Nov-26 18:02 180 3.9
2014-Nov-26 17:47 338 3.9
2014-Nov-26 17:32 270 0 gusting 3 3.9
2014-Nov-26 17:17 270 1 gusting 1 3.9
2014-Nov-26 17:02 3.9
2014-Nov-26 16:47 180 3.9
2014-Nov-26 16:32 180 3.9
2014-Nov-26 16:17 4.4
2014-Nov-26 16:02 4.4
2014-Nov-26 15:47 4.4
2014-Nov-26 15:32 4.4
2014-Nov-26 15:17 315 4.4
2014-Nov-26 15:02 270 0 gusting 0 4.4
2014-Nov-26 14:17 270 1 gusting 3 3.9
2014-Nov-26 14:02 292 1 gusting 3 3.9
2014-Nov-26 13:47 270 2 gusting 3 3.9
2014-Nov-26 13:32 270 1 gusting 2 3.9
2014-Nov-26 13:17 180 0 gusting 4 3.9
2014-Nov-26 13:02 292 2 gusting 3 3.9
2014-Nov-26 12:47 270 2 gusting 5 3.9
2014-Nov-26 12:32 270 3 gusting 5 3.9
2014-Nov-26 12:17 270 2 gusting 3 4.4
2014-Nov-26 12:02 180 1 gusting 5 4.4
2014-Nov-26 11:47 270 1 gusting 5 4.4
2014-Nov-26 11:32 158 4.4
2014-Nov-26 11:17 112 4.4
2014-Nov-26 11:02 270 4.4
2014-Nov-26 10:47 270 4.4
2014-Nov-26 10:32 270 4.4
2014-Nov-26 10:17 135 1 gusting 2 4.4
2014-Nov-26 10:02 180 0 gusting 3 4.4
2014-Nov-26 09:47 270 1 gusting 2 4.4
2014-Nov-26 09:32 045 4.4
2014-Nov-26 09:17 112 0 gusting 2 4.4
2014-Nov-26 09:02 270 3.9
2014-Nov-26 08:47 180 1 gusting 2 3.9
2014-Nov-26 08:32 180 3.9
2014-Nov-26 08:17 158 3.9
2014-Nov-26 08:02 180 3.9
2014-Nov-26 07:47 270 3.3
2014-Nov-26 07:32 270 3.3
2014-Nov-26 07:17 270 0 gusting 2 3.3
2014-Nov-26 07:02 270 0 gusting 3 3.3
2014-Nov-26 06:47 270 2 gusting 2 3.3
2014-Nov-26 06:32 292 0 gusting 2 3.3
2014-Nov-26 06:17 270 3.3
2014-Nov-26 06:02 270 0 gusting 2 3.3
2014-Nov-26 05:47 270 3.3
2014-Nov-26 05:32 158 3.3
2014-Nov-26 05:17 270 1 gusting 3 2.8
2014-Nov-26 05:02 292 0 gusting 3 2.8
2014-Nov-26 04:47 292 1 gusting 3 2.8
2014-Nov-26 04:32 270 1 gusting 2 3.3
2014-Nov-26 04:17 270 0 gusting 3 2.8
2014-Nov-26 04:02 270 2 gusting 2 3.3
2014-Nov-26 03:47 270 3.3
2014-Nov-26 03:32 180 3.3
2014-Nov-26 03:17 292 3.3
2014-Nov-26 03:02 292 0 gusting 3 3.3
2014-Nov-26 02:47 270 1 gusting 2 3.3
2014-Nov-26 02:32 270 3.3
2014-Nov-26 02:17 315 3.3
2014-Nov-26 02:02 338 3.3
2014-Nov-26 01:47 338 3.3
2014-Nov-26 01:32 292 3.3
2014-Nov-26 01:17 158 3.3
2014-Nov-26 01:02 3.3
2014-Nov-26 00:47 068 3.3
2014-Nov-26 00:32 022 3.3
2014-Nov-26 00:17 3.3
2014-Nov-26 00:02 180 3.3
2014-Nov-25 23:47 270 3.3
2014-Nov-25 23:32 292 0 gusting 2 3.3
2014-Nov-25 23:17 292 0 gusting 3 3.3
2014-Nov-25 23:02 180 3.3
2014-Nov-25 22:47 045 3.3
2014-Nov-25 22:32 292 3.3
2014-Nov-25 22:17 270 3.3
2014-Nov-25 22:02 292 3.3
2014-Nov-25 21:47 270 3.3
2014-Nov-25 21:32 292 3.3
2014-Nov-25 21:17 270 3.3
2014-Nov-25 21:02 090 3.3
2014-Nov-25 20:47 180 3.3
2014-Nov-25 20:32 292 3.3
2014-Nov-25 20:17 022 3.3
2014-Nov-25 20:02 270 3.3